Regional Weather Roundup
Issued by NWS Wilmington, NC

Home | Current Version | Previous Version | Text Only | Print | Product List | Glossary On
Versions: 1 2 3 4 5 6 7 8 9 10 11 12 13 14 15 16 17 18 19 20 21 22 23 24 25 26 27 28 29 30 31 32 33 34 35 36 37 38 39 40 41 42 43 44 45 46 47 48 49 50
000
ASUS42 KILM 231310
RWRILM
RWRILM
REGIONAL HOURLY WEATHER ROUNDUP
NATIONAL WEATHER SERVICE WILMINGTON NC
900 AM EDT WED JUL 23 2014

NOTE: "FAIR" INDICATES FEW OR NO CLOUDS BELOW 12,000 FEET WITH NO
SIGNIFICANT WEATHER AND/OR OBSTRUCTIONS TO VISIBILITY.

...............WFO WILMINGTON COUNTY WARNING AREA...............

......COASTAL NC AND SC COUNTIES......

CITY           SKY/WX    TMP DP  RH WIND       PRES   REMARKS
WILMINGTON     SUNNY     81  74  79 NW6       30.07R
SOUTHPORT      SUNNY     80  74  79 W3        30.06F
N MYRTLE BEACH SUNNY     81  74  79 NW5       30.06S
MYRTLE BEACH   SUNNY     81  73  78 VRB6      30.06

......INLAND NC AND SC COUNTIES.......

CITY           SKY/WX    TMP DP  RH WIND       PRES   REMARKS
LUMBERTON      CLOUDY    76  75  97 W5        30.08R FOG
ELIZABETHTOWN  CLOUDY    75  75 100 W3        30.08S FOG
WHITEVILLE     SUNNY     79  74  84 CALM      30.07F
FLORENCE       CLOUDY    77  75  93 NW6       30.08S
DARLINGTON     CLOUDY    75  73  94 NW5       30.10S

....................REST OF NORTH CAROLINA......................

.........EASTERN NC.........

CITY           SKY/WX    TMP DP  RH WIND       PRES   REMARKS
CAPE HATTERAS  PTSUNNY   81  75  82 W12       30.07R
JACKSONVILLE   SUNNY     81  72  74 W5        30.07S
MOREHEAD CITY  PTSUNNY   81  74  79 W8        30.07R
KENANSVILLE    CLOUDY    77  73  87 W5        30.09S
NEW BERN       PTSUNNY   80  74  81 NW5       30.08S
ELIZABETH CITY CLOUDY    77  74  90 W7        30.06R

.........CENTRAL NC.........

CITY           SKY/WX    TMP DP  RH WIND       PRES   REMARKS
RALEIGH DURHAM PTSUNNY   77  73  87 SW5       30.08S
ROCKY MOUNT    PTSUNNY   77  74  90 CALM      30.07S
ROANOKE RAPIDS NOT AVBL
FAYETTEVILLE   PTSUNNY   80  75  84 W8        30.07S
HOFFMAN        MOSUNNY   80  74  83 W5        30.10S

.........WESTERN NC.........

CITY           SKY/WX    TMP DP  RH WIND       PRES   REMARKS
CHARLOTTE      MOSUNNY   78  71  79 CALM      30.11S
GREENSBORO     PTSUNNY   76  71  85 SW6       30.10S
HICKORY        NOT AVBL
BOONE          NOT AVBL
ASHEVILLE      NOT AVBL

.....................REST OF SOUTH CAROLINA.....................

.........EASTERN SC.........

CITY           SKY/WX    TMP DP  RH WIND       PRES   REMARKS
CHARLESTON     MOSUNNY   83  74  74 NW5       30.07F
BEAUFORT MCAS  PTSUNNY   81  75  82 CALM      30.07S
HILTON HEAD    NOT AVBL

.........CENTRAL SC.........

CITY           SKY/WX    TMP DP  RH WIND       PRES   REMARKS
COLUMBIA       MOSUNNY   80  73  79 W6        30.09S
ORANGEBURG     SUNNY     77  72  84 NW5       30.09S
SUMTER SHAW    SUNNY     78  78 100 W6        30.07S

.........WESTERN SC.........

CITY           SKY/WX    TMP DP  RH WIND       PRES   REMARKS
GREENVILLE     NOT AVBL
ROCK HILL      SUNNY     78  74  87 VRB5      30.11S
ANDERSON       SUNNY     78  71  79 CALM      30.12R
CLEMSON        NOT AVBL
GREENWOOD      CLOUDY    75  73  93 CALM      30.13R FOG


...................COASTAL AND OFFSHORE REPORTS..................

................LOCAL PIERS AND NC RESERVE................


STATION/POSITION TIME  SKY/WX   TEMP    WIND        PRES    VSBY
                                AIR SEA DIR/SP/G
                 (UTC)          (F)     (DEG/KT/KT) (MB)    (MI)
JOHNY MRCER PIER 1300            80 83  310/  4/  5 1017.7S
NC RESRV MASNBRO 1200            76     260/  1     1018.0S
OCEAN CREST PIER 1300            81 83  270/  4/  5 1017.0F
SPRINGMAID  PIER 1300            80 83  270/  5/  7 1018.0R


................COASTAL AND OFFSHORE BUOYS................


STATION/POSITION TIME  SKY/WX   TEMP    WIND        PRES    VSBY
                                AIR SEA DIR/SP/G
                 (UTC)          (F)     (DEG/KT/KT) (MB)    (MI)
DIMNDSHOAL 41025 1300                   VRB 14/ 16  1017.8S
WVE H/P(F/S)=  3/10 WND WVE H/P(F/S)=  2/ 6 SWL H/P/D(F/S/D)=  2/130/10

CAPE LOOKOUT     1200            80     260/  9/ 10 1018.0R
ONSLOW BAY 41036 1300            80 80  250/  6/  6 1018.7R
WVE H/P(F/S)=  3/ 7 WND WVE H/P(F/S)=  2/ 4 SWL H/P/D(F/S/D)=  3/140/ 7

5 WRITEBCH 41038 1200            76 81  290/  6/  8   N/A
MASONBORO  41110 1300               81                N/A
WVE H/P(F/S)=  3/ 7 WND WVE H/P(F/S)=  3/ 7

WILM HARBR 41108 NOT AVBL
27WRITEBCH 41037 1200            76 80  260/  6/  8 1017.8F
FRYING PAN 41013 NOT AVBL
SUNST NRSH 41024 1200            80     300/  4/  6 1017.8F
CAPRS NRSH 41029 1200            81     360/  6/  8   N/A
EDISTO     41004 1300            80 82  190/  6/  6 1017.6R
WVE H/P(F/S)=  3/ 7 WND WVE H/P(F/S)=  2/ 4 SWL H/P/D(F/S/D)=  3/ 7



..........OFFSHORE BUOYS BEYOND 100 NM OFFSHORE...........
.....IN A TRIANGLE---HAT TO BERMUDA TO BAHAMAS TO HAT.....


STATION/POSITION TIME  SKY/WX   TEMP    WIND        PRES    VSBY
                                AIR SEA DIR/SP/G
                 (UTC)          (F)     (DEG/KT/KT) (MB)    (MI)
150E HAT   41001 NOT AVBL
W BERMUDA  41048 1157            82 83  200/ 12/ 14 1021.6
WVE H/P(F/S)=  3/ 8 WND WVE H/P(F/S)=  2/ 5 SWL H/P/D(F/S/D)=  2/140/ 8

ATLANTIC S 41049 1156            81 83  130/  4/  6 1023.6R
WVE H/P(F/S)=  3/ 8 SWL H/P/D(F/S/D)=  3/130/ 8

E BAHAMAS  41046 1213            83 84  110/ 16/ 17 1021.1R
WVE H/P(F/S)=  5/ 6 WND WVE H/P(F/S)=  5/ 6 SWL H/P/D(F/S/D)=  2/120/ 8

NE BAHAMAS 41047 1218            82 84  120/ 12/ 14 1021.8S
WVE H/P(F/S)=  4/ 6 WND WVE H/P(F/S)=  2/ 4 SWL H/P/D(F/S/D)=  3/150/ 6

120E CANVRL41010 1300            83 83  160/ 16/ 19 1019.1S
WVE H/P(F/S)=  4/ 5 WND WVE H/P(F/S)=  3/ 5 SWL H/P/D(F/S/D)=  2/ 50/11


END



USA.gov is the U.S. government's official web portal to all federal, state and local government web resources and services.